Time,TemperatureF,DewpointF,PressureIn,WindDirection,WindDirectionDegrees,WindSpeedMPH,WindSpeedGustMPH,Humidity,HourlyPrecipIn,Conditions,Clouds,dailyrainin,SolarRadiationWatts/m^2,SoftwareType,DateUTC
2014-01-01 00:00:00,38.7,21.2,30.45,NNE,22,1.0,5.0,49,0.00,,SCT,0.00,0.00,VWS V14.01,2014-01-01 05:00:00,
2014-01-01 01:00:00,36.2,21.6,30.44,NNE,22,2.0,6.0,55,0.00,,SCT,0.00,0.00,VWS V14.01,2014-01-01 06:00:00,
2014-01-01 02:00:00,36.1,22.8,30.44,NE,45,1.0,4.0,58,0.00,,SCT,0.00,0.00,VWS V14.01,2014-01-01 07:00:00,
2014-01-01 03:00:00,33.6,23.5,30.47,NE,45,0.0,2.0,66,0.00,,SCT,0.00,0.00,VWS V14.01,2014-01-01 08:00:00,
2014-01-01 04:00:00,32.7,23.7,30.46,NE,45,0.0,3.0,69,0.00,,SCT,0.00,0.00,VWS V14.01,2014-01-01 09:00:00,
2014-01-01 05:00:00,31.3,23.7,30.47,NE,45,0.0,2.0,73,0.00,,SCT,0.00,0.00,VWS V14.01,2014-01-01 10:00:00,
2014-01-01 06:00:00,31.2,23.9,30.49,NE,45,0.0,2.0,74,0.00,,SCT,0.00,0.00,VWS V14.01,2014-01-01 11:00:00,
2014-01-01 07:00:00,31.1,24.1,30.50,NE,45,0.0,2.0,75,0.00,,SCT,0.00,0.00,VWS V14.01,2014-01-01 12:00:00,
2014-01-01 08:00:00,30.5,24.2,30.51,NE,45,0.0,0.0,77,0.00,,SCT,0.00,2.00,VWS V14.01,2014-01-01 13:00:00,
2014-01-01 09:00:00,31.2,25.1,30.51,NE,45,0.0,0.0,78,0.00,,SCT,0.00,85.00,VWS V14.01,2014-01-01 14:00:00,
2014-01-01 10:00:00,33.9,25.2,30.52,NE,45,0.0,0.0,70,0.00,,SCT,0.00,161.00,VWS V14.01,2014-01-01 15:00:00,
2014-01-01 11:00:00,38.4,24.5,30.51,WNW,292,0.0,3.0,57,0.00,,SCT,0.00,345.00,VWS V14.01,2014-01-01 16:00:00,
2014-01-01 12:00:00,43.7,25.3,30.46,North,0,1.0,4.0,48,0.00,,SCT,0.00,433.00,VWS V14.01,2014-01-01 17:00:00,
2014-01-01 13:00:00,47.2,27.0,30.41,NW,315,1.0,6.0,45,0.00,,SCT,0.00,458.00,VWS V14.01,2014-01-01 18:00:00,
2014-01-01 14:00:00,49.3,27.8,30.39,WNW,292,5.0,12.0,43,0.00,,SCT,0.00,427.00,VWS V14.01,2014-01-01 19:00:00,
2014-01-01 15:00:00,51.0,28.1,30.37,WNW,292,4.0,13.0,41,0.00,,SCT,0.00,345.00,VWS V14.01,2014-01-01 20:00:00,
2014-01-01 16:00:00,52.6,29.0,30.35,WNW,292,6.0,17.0,40,0.00,,SCT,0.00,209.00,VWS V14.01,2014-01-01 21:00:00,
2014-01-01 17:00:00,51.1,28.2,30.34,NNW,338,6.0,14.0,41,0.00,,SCT,0.00,50.00,VWS V14.01,2014-01-01 22:00:00,
2014-01-01 18:00:00,48.7,27.8,30.34,NNW,338,4.0,15.0,44,0.00,,SCT,0.00,1.00,VWS V14.01,2014-01-01 23:00:00,
2014-01-01 19:00:00,46.2,28.1,30.33,NNW,338,2.0,9.0,49,0.00,,SCT,0.00,0.00,VWS V14.01,2014-01-02 00:00:00,
2014-01-01 20:00:00,45.1,28.1,30.32,ENE,68,4.0,14.0,51,0.00,,SCT,0.00,0.00,VWS V14.01,2014-01-02 01:00:00,
2014-01-01 21:00:00,42.3,27.7,30.30,ENE,68,0.0,5.0,56,0.00,,SCT,0.00,0.00,VWS V14.01,2014-01-02 02:00:00,
2014-01-01 22:00:00,39.8,27.5,30.28,ESE,112,1.0,7.0,61,0.00,,SCT,0.00,0.00,VWS V14.01,2014-01-02 03:00:00,
2014-01-01 23:00:00,40.8,28.8,30.26,North,0,2.0,9.0,62,0.00,,SCT,0.00,0.00,VWS V14.01,2014-01-02 04:00:00,